OpenBCM V1.07b12 (Linux)

Packet Radio Mailbox

DB0FHN

[JN59NK Nuernberg]

 Login: GUEST





  
I6KZR  > KEPLER   14.01.03 21:57l 1796 Lines 48218 Bytes #999 (0) @ WW
BID : 18011_IK6WID
Read: DB0FHN GUEST
Subj: Old Istantrak Keplerians #014
Path: DB0FHN<DB0RGB<OE5XBL<OE2XOM<DB0PV<DB0ZKA<DB0SAA<DB0TTM<DB0SWR<DB0MW<
      DB0SHL<DB0THA<DB0ERF<DB0FBB<DB0GOS<ON0AR<ON0RAT<ON0DXC<WA7V<RZ6HXA<
      SP7MGD<IK6PYS<I6ZLO<IK6WID
Sent: 030114/2014Z @:IK6WID.#AP.IMAR.ITA.EU #:18011 [MONTE URANO]  FBB7.00i
From: I6KZR@IK6WID.#AP.IMAR.ITA.EU
To  : KEPLER@WW


Satellite: ATS 1
Catalog number: 02608
Epoch time:      103004.77866190
Element set:     351 
Inclination:       12.1805 deg
RA of node:       327.7475 deg
Eccentricity:    0.0007023
Arg of perigee:    97.4536 deg
Mean anomaly:     262.6911 deg
Mean motion:    1.00362391 rev/day
Decay rate:   -2.9899E-006 rev/day^2
Epoch rev:            4887
Checksum:              414

Satellite: ATS 3
Catalog number: 03029
Epoch time:      103013.44133120
Element set:     408 
Inclination:       13.0734 deg
RA of node:       335.0833 deg
Eccentricity:    0.0015969
Arg of perigee:   353.9062 deg
Mean anomaly:     197.0579 deg
Mean motion:    1.00272198 rev/day
Decay rate:   -9.0999E-007 rev/day^2
Epoch rev:           12884
Checksum:              298

Satellite: OSCAR 7
Catalog number: 07530
Epoch time:      103012.66139577
Element set:     159 
Inclination:      101.7674 deg
RA of node:        60.7850 deg
Eccentricity:    0.0012628
Arg of perigee:   149.6935 deg
Mean anomaly:     210.4866 deg
Mean motion:   12.53563556 rev/day
Decay rate:   -2.9000E-007 rev/day^2
Epoch rev:           28856
Checksum:              319

Satellite: GOES 2
Catalog number: 10061
Epoch time:      103005.42586557
Element set:     46 
Inclination:       14.1214 deg
RA of node:        13.7857 deg
Eccentricity:    0.0013992
Arg of perigee:   196.1981 deg
Mean anomaly:     163.7785 deg
Mean motion:    0.99397401 rev/day
Decay rate:   -2.7099E-006 rev/day^2
Epoch rev:            3839
Checksum:              317

Satellite: GOES 3
Catalog number: 10953
Epoch time:      103013.03763156
Element set:     889 
Inclination:       13.3934 deg
RA of node:        17.5118 deg
Eccentricity:    0.0004480
Arg of perigee:   338.9899 deg
Mean anomaly:      21.0187 deg
Mean motion:    1.00278047 rev/day
Decay rate:   -8.2999E-007 rev/day^2
Epoch rev:            4313
Checksum:              424

Satellite: GOES 6
Catalog number: 14050
Epoch time:      103011.16182477
Element set:     412 
Inclination:       10.3515 deg
RA of node:        35.7729 deg
Eccentricity:    0.0003619
Arg of perigee:   347.7545 deg
Mean anomaly:      12.2152 deg
Mean motion:    1.00290314 rev/day
Decay rate:    6.5000E-007 rev/day^2
Epoch rev:           13025
Checksum:              237

Satellite: OSCAR 10
Catalog number: 14129
Epoch time:      103013.46521498
Element set:     910 
Inclination:       25.8991 deg
RA of node:       170.3076 deg
Eccentricity:    0.6042033
Arg of perigee:   318.8020 deg
Mean anomaly:       8.5310 deg
Mean motion:    2.05869623 rev/day
Decay rate:   -3.1300E-006 rev/day^2
Epoch rev:           11932
Checksum:              264

Satellite: OSCAR 11 (UoSA
Catalog number: 14781
Epoch time:      103014.20281797
Element set:     44 
Inclination:       98.1125 deg
RA of node:       347.8708 deg
Eccentricity:    0.0009313
Arg of perigee:   332.5445 deg
Mean anomaly:      27.5276 deg
Mean motion:   14.77877288 rev/day
Decay rate:    1.9310E-005 rev/day^2
Epoch rev:            1101
Checksum:              407

Satellite: GOES 7
Catalog number: 17561
Epoch time:      103013.52827387
Element set:     810 
Inclination:        7.5470 deg
RA of node:        55.7264 deg
Eccentricity:    0.0004064
Arg of perigee:   288.6625 deg
Mean anomaly:     149.4031 deg
Mean motion:    1.00317770 rev/day
Decay rate:    1.1600E-006 rev/day^2
Epoch rev:            4138
Checksum:              275

Satellite: COSMOS 1861
Catalog number: 18129
Epoch time:      103013.86744326
Element set:     191 
Inclination:       82.9234 deg
RA of node:       172.9517 deg
Eccentricity:    0.0011204
Arg of perigee:   333.8217 deg
Mean anomaly:      26.2377 deg
Mean motion:   13.72696819 rev/day
Decay rate:    7.5000E-007 rev/day^2
Epoch rev:           77961
Checksum:              326

Satellite: EUTELSAT 1-F4 
Catalog number: 18351
Epoch time:      103003.32622024
Element set:     25 
Inclination:        7.0989 deg
RA of node:        59.3718 deg
Eccentricity:    0.0113260
Arg of perigee:   120.1761 deg
Mean anomaly:     239.7491 deg
Mean motion:    0.98821312 rev/day
Decay rate:   -7.3000E-007 rev/day^2
Epoch rev:            4222
Checksum:              263

Satellite: ASTRA 1A
Catalog number: 19688
Epoch time:      103012.87178794
Element set:     555 
Inclination:        1.3032 deg
RA of node:        95.0773 deg
Eccentricity:    0.0004051
Arg of perigee:   195.1102 deg
Mean anomaly:     140.7789 deg
Mean motion:    1.00273537 rev/day
Decay rate:    5.3000E-007 rev/day^2
Epoch rev:            3182
Checksum:              277

Satellite: OSCAR 14 (UOSA
Catalog number: 20437
Epoch time:      103013.63479197
Element set:     140 
Inclination:       98.2783 deg
RA of node:        58.9560 deg
Eccentricity:    0.0010329
Arg of perigee:   313.4804 deg
Mean anomaly:      46.5520 deg
Mean motion:   14.31224053 rev/day
Decay rate:    1.5199E-006 rev/day^2
Epoch rev:           67735
Checksum:              304

Satellite: OSCAR 15 (UOSA
Catalog number: 20438
Epoch time:      103013.62829575
Element set:     762 
Inclination:       98.2527 deg
RA of node:        48.2320 deg
Eccentricity:    0.0009751
Arg of perigee:   325.6481 deg
Mean anomaly:      34.4068 deg
Mean motion:   14.30186980 rev/day
Decay rate:    1.2599E-006 rev/day^2
Epoch rev:           67702
Checksum:              325

Satellite: OSCAR 16 (PACS
Catalog number: 20439
Epoch time:      103013.72546740
Element set:     837 
Inclination:       98.3234 deg
RA of node:        70.5150 deg
Eccentricity:    0.0010570
Arg of perigee:   319.1090 deg
Mean anomaly:      40.9298 deg
Mean motion:   14.31455537 rev/day
Decay rate:    1.7099E-006 rev/day^2
Epoch rev:           67740
Checksum:              302

Satellite: OSCAR 17 (DOVE
Catalog number: 20440
Epoch time:      103012.95258944
Element set:     729 
Inclination:       98.3431 deg
RA of node:        73.5814 deg
Eccentricity:    0.0010920
Arg of perigee:   320.7402 deg
Mean anomaly:      39.2985 deg
Mean motion:   14.31731461 rev/day
Decay rate:    1.8900E-006 rev/day^2
Epoch rev:           67736
Checksum:              302

Satellite: OSCAR 18 (WEBE
Catalog number: 20441
Epoch time:      103014.19758761
Element set:     987 
Inclination:       98.3407 deg
RA of node:        74.0131 deg
Eccentricity:    0.0011320
Arg of perigee:   317.9811 deg
Mean anomaly:      42.0505 deg
Mean motion:   14.31537873 rev/day
Decay rate:    1.8700E-006 rev/day^2
Epoch rev:           67752
Checksum:              295

Satellite: OSCAR 19 (LUSA
Catalog number: 20442
Epoch time:      103014.24992289
Element set:     939 
Inclination:       98.3540 deg
RA of node:        77.0230 deg
Eccentricity:    0.0011782
Arg of perigee:   316.6349 deg
Mean anomaly:      43.3907 deg
Mean motion:   14.31700383 rev/day
Decay rate:    1.8800E-006 rev/day^2
Epoch rev:           67758
Checksum:              315

Satellite: DEBUT (ORIZURU
Catalog number: 20479
Epoch time:      103012.94965717
Element set:     558 
Inclination:       99.0409 deg
RA of node:       343.3412 deg
Eccentricity:    0.0540192
Arg of perigee:    84.5932 deg
Mean anomaly:     281.6523 deg
Mean motion:   12.83594653 rev/day
Decay rate:    6.1999E-007 rev/day^2
Epoch rev:           60587
Checksum:              344

Satellite: JAS 1B (FUJI 2
Catalog number: 20480
Epoch time:      103012.98353171
Element set:     469 
Inclination:       99.0412 deg
RA of node:       342.6204 deg
Eccentricity:    0.0540950
Arg of perigee:    86.7295 deg
Mean anomaly:     279.5513 deg
Mean motion:   12.83327683 rev/day
Decay rate:   -1.8999E-007 rev/day^2
Epoch rev:           60582
Checksum:              332

Satellite: HST
Catalog number: 20580
Epoch time:      103014.11126759
Element set:     297 
Inclination:       28.4664 deg
RA of node:       268.3921 deg
Eccentricity:    0.0003852
Arg of perigee:   253.8398 deg
Mean anomaly:     222.1237 deg
Mean motion:   14.97666481 rev/day
Decay rate:    4.7279E-005 rev/day^2
Epoch rev:           49731
Checksum:              435

Satellite: INSAT 1D
Catalog number: 20643
Epoch time:      103013.75749891
Element set:     876 
Inclination:        4.1146 deg
RA of node:        81.1862 deg
Eccentricity:    0.0013304
Arg of perigee:   322.4935 deg
Mean anomaly:      52.1757 deg
Mean motion:    1.00282333 rev/day
Decay rate:   -3.0999E-007 rev/day^2
Epoch rev:            3296
Checksum:              290

Satellite: EUTELSAT 2-F1
Catalog number: 20777
Epoch time:      103013.93985752
Element set:     14 
Inclination:        3.4164 deg
RA of node:        84.8546 deg
Eccentricity:    0.0001561
Arg of perigee:   156.0645 deg
Mean anomaly:     286.4894 deg
Mean motion:    1.00271827 rev/day
Decay rate:   -8.2000E-007 rev/day^2
Epoch rev:            2574
Checksum:              294

Satellite: FENGYUN 1B
Catalog number: 20788
Epoch time:      103014.21110632
Element set:     857 
Inclination:       99.0227 deg
RA of node:       356.7463 deg
Eccentricity:    0.0015379
Arg of perigee:   329.5399 deg
Mean anomaly:      30.4873 deg
Mean motion:   14.02139861 rev/day
Decay rate:    1.0400E-006 rev/day^2
Epoch rev:           63258
Checksum:              301

Satellite: EUTELSAT 2-F2
Catalog number: 21056
Epoch time:      103011.95963543
Element set:     609 
Inclination:        2.6392 deg
RA of node:        88.2425 deg
Eccentricity:    0.0002469
Arg of perigee:   217.5674 deg
Mean anomaly:     199.0872 deg
Mean motion:    1.00274943 rev/day
Decay rate:    1.3600E-006 rev/day^2
Epoch rev:            3150
Checksum:              287

